Weather History for Chester, CT

Change the Weather History Date:

Wednesday, April 2, 2014

  Actual Average (KHVN) Record (KHVN)
Temperature  
Mean Temperature 42 °F -  
Max Temperature 51 °F 50 °F 73 °F (1986)
Min Temperature 33 °F 36 °F 30 °F (2003)
Degree Days  
Heating Degree Days 23    
Moisture  
Dew Point 34 °F    
Average Humidity 71    
Maximum Humidity 93    
Minimum Humidity 40    
Precipitation  
Precipitation 0.00 in - - ()
Sea Level Pressure  
Sea Level Pressure 30.09 in    
Wind  
Wind Speed 5 mph (SW)    
Max Wind Speed 10 mph    
Max Gust Speed 18 mph    
Visibility 10 miles    
Events      
Averages and records for this station are not official NWS values.
T = Trace of Precipitation, MM = Missing Value Source: NWS Daily Summary

Daily Weather History Graph

Daily Weather History Graph

Search for Another Location

Airport:

Trip Planner

Search our weather history database for the weather conditions in past years. The results will help you decide how hot, cold, wet, or windy it might be!

Date:

Astronomy

Apr. 02, 2014 Rise Set
Actual Time 6:31 AM EDT 7:16 PM EDT
Civil Twilight 6:03 AM EDT 7:44 PM EDT
Nautical Twilight 5:30 AM EDT 8:17 PM EDT
Astronomical Twilight 4:56 AM EDT 8:51 PM EDT
Moon 8:12 AM EDT (4/2) 10:38 PM EDT (4/2)
Length of Visible Light 13h 40m
Length of Day
12h 44m
Waxing Crescent, 10% of the Moon is Illuminated
Apr 2
Waxing Crescent
Apr 7
First Quarter
Apr 15
Full
Apr 22
Last Quarter
Apr 29
New

Hourly Weather History & Observations

Time (EDT) Temp. Windchill Dew Point Humidity Pressure Visibility Wind Dir Wind Speed Gust Speed Precip Events Conditions
12:15 AM 37.4 °F 33.8 °F 33.8 °F 87% 30.11 in 10.0 mi SSW 4.6 mph - N/A   Clear
12:35 AM 37.4 °F 32.8 °F 33.8 °F 87% 30.11 in 10.0 mi SSW 5.8 mph - N/A   Clear
12:55 AM 37.4 °F 33.8 °F 33.8 °F 87% 30.12 in 10.0 mi SSW 4.6 mph - N/A   Clear
1:35 AM 37.4 °F 33.8 °F 33.8 °F 87% 30.11 in 10.0 mi SSW 4.6 mph - N/A   Clear
1:55 AM 37.4 °F 32.8 °F 33.8 °F 87% 30.11 in 10.0 mi SSW 5.8 mph - N/A   Clear
2:15 AM 37.4 °F 32.8 °F 33.8 °F 87% 30.10 in 10.0 mi South 5.8 mph - N/A   Clear
2:35 AM 37.4 °F 33.8 °F 33.8 °F 87% 30.09 in 10.0 mi SSW 4.6 mph - N/A   Clear
2:55 AM 37.4 °F 33.8 °F 33.8 °F 87% 30.09 in 10.0 mi SSW 4.6 mph - N/A   Clear
3:15 AM 37.4 °F 33.8 °F 32.0 °F 81% 30.08 in 10.0 mi SSW 4.6 mph - N/A   Clear
3:35 AM 37.4 °F 33.8 °F 32.0 °F 81% 30.09 in 10.0 mi South 4.6 mph - N/A   Clear
3:55 AM 35.6 °F 30.7 °F 32.0 °F 87% 30.09 in 10.0 mi SSW 5.8 mph - N/A   Clear
4:15 AM 37.4 °F 34.9 °F 32.0 °F 81% 30.09 in 10.0 mi SSW 3.5 mph - N/A   Clear
4:35 AM 37.4 °F 34.9 °F 32.0 °F 81% 30.09 in 10.0 mi SSW 3.5 mph - N/A   Clear
4:55 AM 33.8 °F 30.8 °F 32.0 °F 93% 30.08 in 10.0 mi SSW 3.5 mph - N/A   Clear
5:15 AM 35.6 °F 31.7 °F 32.0 °F 87% 30.09 in 10.0 mi SW 4.6 mph - N/A   Clear
5:35 AM 35.6 °F - 32.0 °F 87% 30.09 in 10.0 mi Calm Calm - N/A   Clear
5:55 AM 33.8 °F 29.6 °F 32.0 °F 93% 30.10 in 10.0 mi SW 4.6 mph - N/A   Clear
6:15 AM 37.4 °F 33.8 °F 32.0 °F 81% 30.12 in 10.0 mi WSW 4.6 mph - N/A   Clear
6:35 AM 35.6 °F - 32.0 °F 87% 30.11 in 10.0 mi Calm Calm - N/A   Clear
6:55 AM 35.6 °F - 32.0 °F 87% 30.11 in 10.0 mi Calm Calm - N/A   Clear
7:15 AM 35.6 °F - 32.0 °F 87% 30.11 in 10.0 mi Calm Calm - N/A   Clear
8:35 AM 39.2 °F 35.0 °F 32.0 °F 75% 30.12 in 10.0 mi WSW 5.8 mph - N/A   Clear
8:55 AM 41.0 °F 37.1 °F 32.0 °F 70% 30.12 in 10.0 mi WSW 5.8 mph - N/A   Clear
9:15 AM 42.8 °F 40.1 °F 32.0 °F 66% 30.13 in 10.0 mi WSW 4.6 mph - N/A   Clear
9:35 AM 44.6 °F 40.7 °F 32.0 °F 61% 30.13 in 10.0 mi SW 6.9 mph - N/A   Clear
9:55 AM 44.6 °F 42.2 °F 30.2 °F 57% 30.14 in 10.0 mi SW 4.6 mph - N/A   Clear
10:15 AM 44.6 °F 40.7 °F 28.4 °F 53% 30.14 in 10.0 mi SSW 6.9 mph - N/A   Clear
10:35 AM 46.4 °F 41.9 °F 26.6 °F 46% 30.14 in 10.0 mi South 9.2 mph - N/A   Clear
10:55 AM 46.4 °F 41.9 °F 23.0 °F 40% 30.14 in 10.0 mi SW 9.2 mph - N/A   Scattered Clouds
11:15 AM 46.4 °F 41.9 °F 24.8 °F 43% 30.13 in 10.0 mi SSW 9.2 mph - N/A   Partly Cloudy
11:35 AM 46.4 °F 41.5 °F 26.6 °F 46% 30.13 in 10.0 mi SSW 10.4 mph 18.4 mph N/A   Partly Cloudy
11:55 AM 46.4 °F 41.9 °F 28.4 °F 50% 30.12 in 10.0 mi SSW 9.2 mph - N/A   Partly Cloudy
12:15 PM 46.4 °F 41.9 °F 28.4 °F 50% 30.12 in 10.0 mi SSW 9.2 mph - N/A   Scattered Clouds
12:35 PM 46.4 °F 42.9 °F 28.4 °F 50% 30.12 in 10.0 mi SW 6.9 mph - N/A   Partly Cloudy
12:55 PM 48.2 °F - 30.2 °F 50% 30.10 in 10.0 mi SSW 8.1 mph - N/A   Scattered Clouds
1:15 PM 48.2 °F - 32.0 °F 54% 30.10 in 10.0 mi WSW 6.9 mph - N/A   Scattered Clouds
1:55 PM 48.2 °F - 32.0 °F 54% 30.08 in 10.0 mi SSW 6.9 mph - N/A   Partly Cloudy
2:15 PM 50.0 °F - 33.8 °F 54% 30.08 in 10.0 mi SW 6.9 mph - N/A   Scattered Clouds
2:35 PM 50.0 °F - 33.8 °F 54% 30.07 in 10.0 mi SSW 6.9 mph - N/A   Scattered Clouds
2:55 PM 50.0 °F - 33.8 °F 54% 30.07 in 10.0 mi SW 3.5 mph - N/A   Partly Cloudy
3:15 PM 50.0 °F - 33.8 °F 54% 30.06 in 10.0 mi South 6.9 mph - N/A   Scattered Clouds
3:35 PM 51.8 °F - 35.6 °F 54% 30.06 in 10.0 mi WSW 5.8 mph - N/A   Scattered Clouds
3:55 PM 51.8 °F - 35.6 °F 54% 30.05 in 10.0 mi SSW 6.9 mph - N/A   Partly Cloudy
4:15 PM 51.8 °F - 35.6 °F 54% 30.05 in 10.0 mi Calm Calm - N/A   Partly Cloudy
4:35 PM 51.8 °F - 37.4 °F 58% 30.05 in 10.0 mi SSW 5.8 mph - N/A   Clear
4:55 PM 51.8 °F - 37.4 °F 58% 30.05 in 10.0 mi WSW 8.1 mph - N/A   Clear
5:15 PM 50.0 °F - 37.4 °F 62% 30.05 in 10.0 mi SW 8.1 mph - N/A   Clear
5:35 PM 51.8 °F - 37.4 °F 58% 30.05 in 10.0 mi South 6.9 mph - N/A   Clear
5:55 PM 51.8 °F - 37.4 °F 58% 30.05 in 10.0 mi South 6.9 mph - N/A   Clear
6:15 PM 50.0 °F - 37.4 °F 62% 30.06 in 10.0 mi SSW 6.9 mph - N/A   Clear
6:35 PM 48.2 °F - 37.4 °F 66% 30.06 in 10.0 mi SW 8.1 mph - N/A   Clear
6:55 PM 46.4 °F 42.9 °F 37.4 °F 71% 30.06 in 10.0 mi SW 6.9 mph - N/A   Clear
7:15 PM 44.6 °F 41.4 °F 37.4 °F 76% 30.06 in 10.0 mi SW 5.8 mph - N/A   Clear
7:35 PM 44.6 °F 42.2 °F 37.4 °F 76% 30.06 in 10.0 mi WSW 4.6 mph - N/A   Clear
7:55 PM 44.6 °F 41.4 °F 37.4 °F 76% 30.07 in 10.0 mi WSW 5.8 mph - N/A   Clear
8:15 PM 44.6 °F 43.1 °F 37.4 °F 76% 30.07 in 10.0 mi West 3.5 mph - N/A   Clear
8:35 PM 44.6 °F 43.1 °F 37.4 °F 76% 30.08 in 10.0 mi SW 3.5 mph - N/A   Clear
8:55 PM 44.6 °F - 37.4 °F 76% 30.09 in 10.0 mi Calm Calm - N/A   Clear
9:15 PM 42.8 °F - 37.4 °F 81% 30.09 in 10.0 mi Calm Calm - N/A   Clear
9:35 PM 42.8 °F - 37.4 °F 81% 30.08 in 10.0 mi Calm Calm - N/A   Clear
9:55 PM 42.8 °F - 37.4 °F 81% 30.09 in 10.0 mi Calm Calm - N/A   Clear
10:15 PM 44.6 °F - 37.4 °F 76% 30.08 in 10.0 mi Calm Calm - N/A   Clear
10:35 PM 42.8 °F - 37.4 °F 81% 30.08 in 10.0 mi Calm Calm - N/A   Clear
10:55 PM 42.8 °F - 37.4 °F 81% 30.08 in 10.0 mi Calm Calm - N/A   Clear
11:15 PM 42.8 °F - 37.4 °F 81% 30.08 in 10.0 mi Calm Calm - N/A   Clear
11:35 PM 42.8 °F 41.1 °F 37.4 °F 81% 30.09 in 10.0 mi West 3.5 mph - N/A   Clear
11:55 PM 42.8 °F - 37.4 °F 81% 30.09 in 10.0 mi Calm Calm - N/A   Clear